GW1682 Weather Reports


Display with metric or nautical units.
time (UTC)temp
F
wind
direction
speed
MPH
gust
MPH
rain 1hr
in
rain 24hr
in
rain mn
in
humidity
%
barometer
mb
20260504034624 49 161 0.0 0.0 0.00 0.04 0.00 70 1017.5
20260504033123 48 161 0.0 0.0 0.00 0.04 0.00 70 1017.4
20260504031626 49 155 0.0 0.0 0.00 0.04 0.00 69 1017.3
20260504030127 49 155 0.0 0.0 0.00 0.04 0.00 68 1017.4
20260504023122 49 159 0.0 2.0 0.00 0.04 0.00 66 1017.3
20260504021618 49 137 0.0 2.0 0.00 0.04 0.00 66 1017.3
20260504020135 50 169 0.0 2.0 0.00 0.04 0.00 65 1017.5
20260504014625 50 114 0.0 3.0 0.00 0.04 0.00 64 1017.6
20260504011611 51 48 2.0 4.0 0.00 0.04 0.00 62 1017.4
20260504010118 50 162 0.0 2.0 0.00 0.04 0.00 62 1017.4
20260504004610 50 148 1.0 3.0 0.00 0.04 0.00 62 1017.5
20260504003119 50 164 1.0 2.0 0.00 0.04 0.00 62 1017.4
20260504001613 51 175 2.0 4.0 0.00 0.04 0.00 61 1017.3
20260504000110 51 178 0.0 2.0 0.00 0.04 0.00 62 1017.5
20260503234612 51 90 1.0 3.0 0.00 0.04 0.00 62 1017.6
20260503233104 51 117 0.0 4.0 0.00 0.04 0.00 63 1017.5
20260503231602 50 185 0.0 2.0 0.00 0.04 0.00 63 1017.6
20260503230105 51 333 0.0 2.0 0.00 0.04 0.00 63 1017.5
20260503224607 51 336 1.0 4.0 0.00 0.05 0.00 62 1017.5
20260503223107 50 62 1.0 2.0 0.00 0.05 0.00 63 1017.4
20260503221602 50 333 0.0 2.0 0.00 0.05 0.00 64 1017.6
20260503220103 51 0 0.0 2.0 0.00 0.05 0.00 63 1017.6
20260503214602 51 0 1.0 4.0 0.00 0.05 0.00 61 1017.9
20260503211602 52 0 2.0 4.0 0.00 0.05 0.00 61 1017.6
20260503204602 52 338 0.0 5.0 0.00 0.05 0.05 61 1017.9
20260503203111 52 334 2.0 7.0 0.00 0.05 0.05 60 1017.9
20260503201603 53 295 4.0 9.0 0.00 0.05 0.05 60 1018.0
20260503194604 53 327 3.0 9.0 0.00 0.05 0.05 58 1017.8
20260503191602 53 336 5.0 12.0 0.00 0.05 0.05 57 1017.8
20260503184603 53 302 5.0 11.0 0.00 0.05 0.05 57 1017.4
20260503183102 53 3 4.0 10.0 0.00 0.05 0.05 58 1017.2
20260503181603 54 0 3.0 10.0 0.00 0.05 0.05 58 1017.0
20260503174603 54 329 2.0 7.0 0.00 0.05 0.05 56 1016.7
20260503173104 54 0 3.0 10.0 0.00 0.05 0.05 55 1016.4
20260503171602 54 312 3.0 11.0 0.00 0.05 0.05 54 1016.5
20260503160106 55 8 8.0 14.0 0.00 0.05 0.05 53 1015.6
20260503140110 56 0 8.0 17.0 0.00 0.05 0.05 50 1015.2
20260503081535 52 13 3.0 6.0 0.00 0.05 0.05 66 1015.4
20260503071535 49 37 2.0 5.0 0.00 0.05 0.05 74 1015.4
20260503054556 45 142 2.0 9.0 0.02 0.03 0.05 83 1016.0
20260503053030 45 164 3.0 9.0 0.04 0.03 0.05 84 1015.7
20260503051529 45 38 3.0 11.0 0.04 0.03 0.05 84 1015.7
20260503044526 46 151 2.0 7.0 0.02 0.01 0.02 82 1015.3
20260503041528 48 0 3.0 9.0 0.00 0.01 0.01 75 1015.1
20260503040033 48 18 2.0 7.0 0.00 0.01 0.01 76 1015.0